When you browse on this site, cookies collect data to enhance your experience and personalize the content and advertising you see.
Visit our Privacy Policy to learn more. By continuing to use the site, you agree to this use of cookies and data.
  • In Switzerland
  • List of Countries
  • For 7 days
  • Water Temperature
  • Satellite Maps
  • Weather Map
  • Weather Widgets
  • user-avatar
    Login

    Hourly Weather Nam Dinh

    Today, 24 July, Wednesday

    Time Temperature Precipitation Wind Pressure Humidity
    00:00 +31°C° 0.1 mm 2 mps 751 mmHg 73%
    01:00 +30°C° 0.1 mm 2 mps 751 mmHg 73%
    02:00 +30°C° 0 mm 2 mps 750 mmHg 74%
    03:00 +30°C° 0 mm 1 mps 750 mmHg 76%
    04:00 +29°C° 0 mm 1 mps 750 mmHg 78%
    05:00 +30°C° 0 mm 2 mps 750 mmHg 77%
    06:00 +30°C° 0 mm 2 mps 750 mmHg 77%
    07:00 +30°C° 0 mm 2 mps 751 mmHg 77%
    08:00 +32°C° 0.2 mm 2 mps 751 mmHg 70%
    09:00 +34°C° 0.2 mm 2 mps 751 mmHg 63%
    10:00 +36°C° 0.2 mm 2 mps 751 mmHg 56%
    11:00 +36°C° 0 mm 1 mps 751 mmHg 53%
    12:00 +36°C° 0 mm 1 mps 751 mmHg 51%
    13:00 +37°C° 0 mm 1 mps 750 mmHg 48%
    14:00 +38°C° 0 mm 2 mps 750 mmHg 51%
    15:00 +37°C° 0 mm 3 mps 749 mmHg 54%
    16:00 +36°C° 0 mm 4 mps 749 mmHg 57%
    17:00 +35°C° 0.1 mm 4 mps 749 mmHg 62%
    18:00 +34°C° 0.1 mm 4 mps 750 mmHg 67%
    19:00 +33°C° 0.1 mm 4 mps 750 mmHg 73%
    20:00 +32°C° 0.1 mm 4 mps 751 mmHg 74%
    21:00 +31°C° 0.1 mm 3 mps 751 mmHg 75%
    22:00 +31°C° 0.1 mm 3 mps 752 mmHg 76%
    23:00 +31°C° 0.2 mm 3 mps 752 mmHg 77%

    Tomorrow, 25 July, Thursday

    Time Temperature Precipitation Wind Pressure Humidity
    00:00 +31°C° 0.2 mm 3 mps 752 mmHg 78%
    01:00 +30°C° 0.2 mm 3 mps 752 mmHg 79%
    02:00 +30°C° 0.1 mm 2 mps 752 mmHg 79%
    03:00 +30°C° 0.1 mm 2 mps 752 mmHg 80%
    04:00 +29°C° 0.1 mm 2 mps 752 mmHg 80%
    05:00 +30°C° 0.1 mm 1 mps 752 mmHg 79%
    06:00 +30°C° 0.1 mm 1 mps 752 mmHg 78%
    07:00 +31°C° 0.1 mm 1 mps 753 mmHg 77%
    08:00 +32°C° 0.5 mm 1 mps 753 mmHg 71%
    09:00 +33°C° 0.5 mm 1 mps 753 mmHg 65%
    10:00 +35°C° 0.5 mm 1 mps 753 mmHg 60%
    11:00 +36°C° 0.2 mm 1 mps 753 mmHg 55%
    12:00 +38°C° 0.2 mm 2 mps 752 mmHg 51%
    13:00 +39°C° 0.2 mm 2 mps 751 mmHg 46%
    14:00 +38°C° 0 mm 3 mps 751 mmHg 50%
    15:00 +38°C° 0 mm 4 mps 751 mmHg 54%
    16:00 +37°C° 0 mm 5 mps 750 mmHg 58%
    17:00 +35°C° 0 mm 4 mps 750 mmHg 63%
    18:00 +34°C° 0 mm 4 mps 751 mmHg 69%
    19:00 +33°C° 0 mm 4 mps 751 mmHg 74%
    20:00 +32°C° 0.3 mm 4 mps 752 mmHg 76%
    21:00 +31°C° 0.3 mm 3 mps 752 mmHg 78%
    22:00 +31°C° 0.3 mm 3 mps 753 mmHg 81%
    23:00 +31°C° 0.7 mm 2 mps 753 mmHg 81%

    Day after tomorrow, 26 July, Friday

    Time Temperature Precipitation Wind Pressure Humidity
    00:00 +30°C° 0.7 mm 2 mps 752 mmHg 82%
    01:00 +30°C° 0.7 mm 2 mps 752 mmHg 83%
    02:00 +30°C° 0.1 mm 2 mps 752 mmHg 84%
    03:00 +30°C° 0.1 mm 1 mps 751 mmHg 84%
    04:00 +30°C° 0.1 mm 1 mps 751 mmHg 85%
    05:00 +30°C° 0.2 mm 1 mps 751 mmHg 83%
    06:00 +31°C° 0.2 mm 1 mps 752 mmHg 82%
    07:00 +31°C° 0.2 mm 1 mps 752 mmHg 81%
    08:00 +32°C° 0.5 mm 1 mps 752 mmHg 74%
    09:00 +34°C° 0.5 mm 1 mps 752 mmHg 67%
    10:00 +36°C° 0.5 mm 2 mps 753 mmHg 59%
    11:00 +37°C° 0.1 mm 1 mps 752 mmHg 55%
    12:00 +39°C° 0.1 mm 1 mps 751 mmHg 51%
    13:00 +40°C° 0.1 mm 1 mps 751 mmHg 46%
    14:00 +39°C° 0.1 mm 2 mps 750 mmHg 51%
    15:00 +38°C° 0.1 mm 3 mps 750 mmHg 55%
    16:00 +37°C° 0.1 mm 4 mps 749 mmHg 59%
    17:00 +36°C° 0 mm 4 mps 749 mmHg 65%
    18:00 +34°C° 0 mm 4 mps 750 mmHg 70%
    19:00 +33°C° 0 mm 4 mps 750 mmHg 75%
    20:00 +33°C° 0.1 mm 3 mps 751 mmHg 77%
    21:00 +31°C° 0.1 mm 3 mps 751 mmHg 78%
    22:00 +31°C° 0.1 mm 3 mps 752 mmHg 80%
    23:00 +31°C° 0.2 mm 3 mps 752 mmHg 80%

    27 July, Saturday

    Time Temperature Precipitation Wind Pressure Humidity
    00:00 +31°C° 0.2 mm 2 mps 751 mmHg 81%
    01:00 +31°C° 0.2 mm 2 mps 751 mmHg 82%
    02:00 +31°C° 0.1 mm 2 mps 751 mmHg 83%
    03:00 +31°C° 0.1 mm 2 mps 750 mmHg 83%
    04:00 +30°C° 0.1 mm 2 mps 750 mmHg 84%
    05:00 +31°C° 0 mm 2 mps 751 mmHg 83%
    06:00 +31°C° 0 mm 2 mps 751 mmHg 81%
    07:00 +31°C° 0 mm 2 mps 751 mmHg 79%
    08:00 +34°C° 0 mm 2 mps 751 mmHg 73%
    09:00 +35°C° 0 mm 2 mps 752 mmHg 67%
    10:00 +36°C° 0 mm 2 mps 752 mmHg 61%
    11:00 +38°C° 0 mm 2 mps 751 mmHg 56%
    12:00 +39°C° 0 mm 2 mps 751 mmHg 51%
    13:00 +40°C° 0 mm 2 mps 750 mmHg 47%
    14:00 +39°C° 0 mm 3 mps 750 mmHg 52%
    15:00 +39°C° 0 mm 5 mps 749 mmHg 57%
    16:00 +38°C° 0 mm 6 mps 749 mmHg 62%
    17:00 +35°C° 0 mm 5 mps 749 mmHg 66%
    18:00 +34°C° 0 mm 5 mps 750 mmHg 71%
    19:00 +33°C° 0 mm 4 mps 750 mmHg 75%
    20:00 +33°C° 0 mm 4 mps 751 mmHg 76%
    21:00 +33°C° 0 mm 4 mps 752 mmHg 77%
    22:00 +33°C° 0 mm 3 mps 752 mmHg 78%
    23:00 +32°C° 1 mm 4 mps 752 mmHg 80%

    28 July, Sunday

    Time Temperature Precipitation Wind Pressure Humidity
    00:00 +32°C° 1 mm 4 mps 752 mmHg 82%
    01:00 +32°C° 1 mm 5 mps 752 mmHg 84%
    02:00 +32°C° 0.5 mm 5 mps 751 mmHg 84%
    03:00 +32°C° 0.5 mm 5 mps 751 mmHg 84%
    04:00 +32°C° 0.5 mm 6 mps 751 mmHg 84%
    05:00 +32°C° 0.8 mm 5 mps 752 mmHg 84%
    06:00 +32°C° 0.8 mm 5 mps 752 mmHg 84%
    07:00 +32°C° 0.8 mm 5 mps 752 mmHg 83%
    08:00 +34°C° 0.2 mm 4 mps 752 mmHg 77%
    09:00 +35°C° 0.2 mm 4 mps 752 mmHg 71%
    10:00 +36°C° 0.2 mm 4 mps 753 mmHg 65%
    11:00 +37°C° 0.3 mm 4 mps 752 mmHg 63%
    12:00 +37°C° 0.3 mm 4 mps 752 mmHg 61%
    13:00 +38°C° 0.3 mm 4 mps 751 mmHg 58%
    14:00 +37°C° 0 mm 5 mps 751 mmHg 60%
    15:00 +37°C° 0 mm 5 mps 750 mmHg 61%
    16:00 +36°C° 0 mm 5 mps 750 mmHg 63%
    17:00 +35°C° 0 mm 5 mps 750 mmHg 68%
    18:00 +34°C° 0 mm 5 mps 751 mmHg 74%
    19:00 +32°C° 0 mm 4 mps 751 mmHg 79%
    20:00 +32°C° 0 mm 4 mps 752 mmHg 80%
    21:00 +32°C° 0 mm 4 mps 752 mmHg 81%
    22:00 +31°C° 0 mm 3 mps 753 mmHg 82%
    23:00 +31°C° 0.1 mm 3 mps 753 mmHg 83%

    29 July, Monday

    Time Temperature Precipitation Wind Pressure Humidity
    00:00 +31°C° 0.1 mm 3 mps 753 mmHg 83%
    01:00 +30°C° 0.1 mm 3 mps 752 mmHg 83%
    02:00 +30°C° 0.1 mm 3 mps 752 mmHg 84%
    03:00 +30°C° 0.1 mm 3 mps 752 mmHg 84%
    04:00 +30°C° 0.1 mm 3 mps 752 mmHg 85%
    05:00 +31°C° 0.1 mm 3 mps 752 mmHg 82%
    06:00 +31°C° 0.1 mm 3 mps 753 mmHg 79%
    07:00 +33°C° 0.1 mm 3 mps 753 mmHg 77%
    08:00 +34°C° 0 mm 3 mps 753 mmHg 72%
    09:00 +35°C° 0 mm 4 mps 753 mmHg 66%
    10:00 +36°C° 0 mm 4 mps 753 mmHg 61%
    11:00 +37°C° 0 mm 4 mps 753 mmHg 60%
    12:00 +37°C° 0 mm 4 mps 752 mmHg 59%
    13:00 +37°C° 0 mm 5 mps 752 mmHg 59%
    14:00 +37°C° 0 mm 5 mps 751 mmHg 60%
    15:00 +36°C° 0 mm 5 mps 751 mmHg 61%
    16:00 +36°C° 0 mm 5 mps 750 mmHg 63%
    17:00 +35°C° 0 mm 5 mps 751 mmHg 68%
    18:00 +33°C° 0 mm 4 mps 751 mmHg 73%
    19:00 +31°C° 0 mm 3 mps 752 mmHg 79%
    20:00 +31°C° 0 mm 3 mps 752 mmHg 80%
    21:00 +31°C° 0 mm 3 mps 753 mmHg 81%
    22:00 +30°C° 0 mm 3 mps 753 mmHg 83%
    23:00 +30°C° 0.7 mm 3 mps 753 mmHg 84%
    Show more